sat.trackr.live / text

‹ back to catalog

STARLINK-37195

NORAD 68662 · 2026-077A

PAYLOAD ACTIVE UNKNOWN

§ Identity

Operator
Country
US
Launch date
2026-04-11
Launch site
AFWTR
Launch vehicle
Mass (kg)
RCS (m²)

Purposes: comms

External: N2YO · Heavens-Above · Gunter

§ Orbital elements

Epoch: 2026-05-25T02:18:31.658400Z

Period
93.91 min
Inclination
97.2865°
Eccentricity
0.0001754
Mean motion
15.33422797 rev/d
Perigee alt
464.4 km
Apogee alt
466.8 km
Semi-major
6,843.7 km
B*
4.4172e-4
RAAN
16.6124°
Arg perigee
97.3947°
Mean anomaly
262.7495°
Rev number
686

§ Raw data

STARLINK-371951 68662U 26077A   26145.09619975  .00014203  00000+0  44172-3 0  99942 68662  97.2865  16.6124 0001754  97.3947 262.7495 15.33422797  6861

JSON: /api/v1/satellites/68662 · /tle

For live sub-satellite position, see the globe view (requires WebGL).

§ Visibility from observer

Set your observer location to see the next 7 days of passes ≥ 10°. The values pass through the URL so the page stays shareable.

No JS? Fill the form by hand. The geolocation button needs JavaScript.